Overview Statistics Trail Chart Weather Telemetry Raw packets
 

This is the latest recevied weather packets stored in our database for station/object 4S6DRJ-13. If no packets are shown the sender has not sent any weather packets the latest 10 day(s).

<< 243 244 245 246 247 248 249 >>
Time Temp. Humidity Pressure Rain* Wind** Luminosity Snow
1788109060 28.33° C 83% 1011.2 hPa 0 mm 0.89 m/s, 228° 0 W/m² -
1788108999 28.33° C 83% 1011.3 hPa 0 mm 1.34 m/s, 305° 0 W/m² -
1788108938 28.33° C 83% 1011.1 hPa 0 mm 0.89 m/s, 260° 0 W/m² -
1788108877 28.33° C 83% 1011.1 hPa 0 mm 1.79 m/s, 152° 0 W/m² -
1788108816 28.33° C 83% 1011.2 hPa 0 mm 1.79 m/s, 233° 0 W/m² -
1788108755 28.33° C 83% 1011.4 hPa 0 mm 0.45 m/s, 261° 0 W/m² -
1788108694 28.33° C 83% 1011.3 hPa 0 mm 1.79 m/s, 281° 0 W/m² -
1788108633 28.33° C 83% 1011.1 hPa 0 mm 2.68 m/s, 206° 0 W/m² -
1788108572 28.33° C 83% 1011.3 hPa 0 mm 0.89 m/s, 227° 0 W/m² -
1788108511 28.33° C 83% 1011.2 hPa 0 mm 0.89 m/s, 255° 0 W/m² -
1788108450 28.33° C 83% 1011.3 hPa 0 mm 0.89 m/s, 213° 0 W/m² -
1788108389 28.33° C 83% 1011.2 hPa 0 mm 0.89 m/s, 210° 0 W/m² -
1788108328 28.33° C 83% 1011.1 hPa 0 mm 1.79 m/s, 216° 0 W/m² -
1788108268 28.33° C 83% 1011.1 hPa 0 mm 0.45 m/s, 223° 0 W/m² -
1788108206 28.33° C 83% 1011.2 hPa 0 mm 0.89 m/s, 193° 0 W/m² -
1788108145 28.33° C 83% 1011.1 hPa 0 mm 0.45 m/s, 231° 0 W/m² -
1788108084 28.33° C 83% 1011.2 hPa 0 mm 0.89 m/s, 227° 0 W/m² -
1788108023 28.33° C 83% 1011.4 hPa 0 mm 1.34 m/s, 219° 0 W/m² -
1788107968 28.33° C 83% 1011 hPa 0 mm 0.45 m/s, 235° 0 W/m² -
1788107901 28.33° C 83% 1011 hPa 0 mm 0.89 m/s, 222° 0 W/m² -
1788107840 28.33° C 83% 1011 hPa 0 mm 0.45 m/s, 176° 0 W/m² -
1788107779 28.33° C 83% 1011 hPa 0 mm 0.89 m/s, 241° 0 W/m² -
1788107718 28.33° C 83% 1011 hPa 0 mm 0.89 m/s, 236° 0 W/m² -
1788107657 28.33° C 83% 1011 hPa 0 mm 0.89 m/s, 262° 0 W/m² -
1788107597 28.33° C 83% 1010.9 hPa 0 mm 0.45 m/s, 242° 0 W/m² -

* Rain latest hour (hover to see other rain measurements)
** Current wind speed in m/s (hover to see current wind gust speed)